Lamoni, IA

12:06 PM CDT on June 29, 2017 (GMT -0500)
Lamoni Municipal

Weather History for KLWD - February, 2013

Change the Weather History Date:

Friday, February 22, 2013

  Actual Average Record
Temperature  
Mean Temperature 21 °F 30 °F  
Max Temperature 25 °F 40 °F 75 °F (2017)
Min Temperature 17 °F 21 °F -2 °F (1989)
Degree Days  
Heating Degree Days 44 34  
Month to date heating degree days 801 827  
Since 1 July heating degree days 4174 4519  
Cooling Degree Days 0 0  
Month to date cooling degree days 0 0  
Year to date cooling degree days 0 0  
Moisture  
Dew Point 17 °F    
Average Humidity 82    
Maximum Humidity 96    
Minimum Humidity 68    
Precipitation  
Precipitation 0.01 in 0.05 in 0.45 in (1981)
Month to date precipitation 1.48 1.04  
Sea Level Pressure  
Sea Level Pressure 29.90 in    
Wind  
Wind Speed 10 mph (West)    
Max Wind Speed 20 mph    
Max Gust Speed 24 mph    
Visibility 7 miles    
Events Snow    
T = Trace of Precipitation, MM = Missing Value Source: NWS Daily Summary

Daily Weather History Graph

Daily Weather History Graph

Search for Another Location

Airport or City:

Trip Planner

Search our weather history database for the weather conditions in past years. The results will help you decide how hot, cold, wet, or windy it might be!

Date:

Astronomy

Feb. 22, 2013 Rise Set
Actual Time 6:59 AM CST 5:59 PM CST
Civil Twilight 6:31 AM CST 6:26 PM CST
Nautical Twilight 6:00 AM CST 6:58 PM CST
Astronomical Twilight 5:28 AM CST 7:30 PM CST
Moon 3:10 PM CST (2/22) 4:45 AM CST (2/22)
Length of Visible Light 11h 55m
Length of Day
10h 59m
Waxing Gibbous, 90% of the Moon is Illuminated
Feb 22
Waxing Gibbous
Feb 25
Full
Mar 4
Last Quarter
Mar 11
New
Mar 19
First Quarter

Hourly Weather History & Observations

Time (CST) Temp. Windchill Dew Point Humidity Pressure Visibility Wind Dir Wind Speed Gust Speed Precip Events Conditions
12:53 AM 24.1 °F 18.2 °F 21.0 °F 88% 29.80 in 5.0 mi ENE 4.6 mph - 0.00 in Snow Light Snow
1:53 AM 24.1 °F - 21.0 °F 88% 29.80 in 2.0 mi Calm Calm - 0.01 in Snow Light Snow
2:05 AM 24.8 °F - 21.2 °F 86% 29.75 in 2.0 mi Calm Calm - 0.00 in Snow Light Snow
2:53 AM 23.0 °F - 21.0 °F 92% 29.80 in 3.0 mi Calm Calm - 0.00 in Snow Light Snow
3:07 AM 23.0 °F - 21.2 °F 93% 29.75 in 4.0 mi Calm Calm - 0.00 in   Overcast
3:37 AM 21.2 °F 16.4 °F 19.4 °F 93% 29.74 in 5.0 mi WNW 3.5 mph - 0.00 in   Overcast
3:53 AM 21.9 °F 17.2 °F 19.9 °F 92% 29.79 in 5.0 mi WNW 3.5 mph - 0.00 in   Overcast
4:53 AM 21.9 °F 14.5 °F 19.9 °F 92% 29.80 in 5.0 mi West 5.8 mph - N/A   Overcast
5:04 AM 21.2 °F 14.9 °F 19.4 °F 93% 29.76 in 5.0 mi West 4.6 mph - N/A   Overcast
5:53 AM 21.0 °F 13.4 °F 19.0 °F 92% 29.81 in 6.0 mi West 5.8 mph - N/A   Overcast
6:53 AM 19.0 °F 9.0 °F 16.0 °F 88% 29.83 in 5.0 mi WSW 8.1 mph - 0.00 in   Clear
7:37 AM 17.6 °F 5.0 °F 15.8 °F 93% 29.80 in 4.0 mi West 11.5 mph - N/A   Scattered Clouds
7:53 AM 18.0 °F 5.4 °F 16.0 °F 92% 29.85 in 5.0 mi West 11.5 mph - N/A   Mostly Cloudy
8:00 AM 19.4 °F 6.6 °F 17.6 °F 93% 29.81 in 6.0 mi WNW 12.7 mph - N/A   Mostly Cloudy
8:53 AM 19.9 °F 6.7 °F 17.1 °F 89% 29.90 in 6.0 mi West 13.8 mph - N/A   Overcast
9:27 AM 19.4 °F 6.0 °F 17.6 °F 93% 29.86 in 7.0 mi West 13.8 mph - N/A   Overcast
9:53 AM 19.9 °F 5.7 °F 16.0 °F 85% 29.93 in 8.0 mi West 16.1 mph - N/A   Overcast
10:01 AM 19.4 °F 5.0 °F 15.8 °F 86% 29.88 in 9.0 mi West 16.1 mph - N/A   Overcast
10:51 AM 21.2 °F 7.8 °F 17.6 °F 86% 29.89 in 10.0 mi West 15.0 mph - N/A   Overcast
10:53 AM 21.9 °F 8.7 °F 17.1 °F 82% 29.95 in 10.0 mi West 15.0 mph - N/A   Overcast
11:17 AM 23.0 °F 10.1 °F 17.6 °F 80% 29.90 in 10.0 mi WNW 15.0 mph - N/A   Scattered Clouds
11:53 AM 24.1 °F 11.5 °F 17.1 °F 75% 29.96 in 10.0 mi WNW 15.0 mph - N/A   Clear
12:53 PM 24.1 °F 11.0 °F 17.1 °F 75% 29.97 in 10.0 mi West 16.1 mph - N/A   Clear
1:53 PM 25.0 °F 11.7 °F 17.1 °F 72% 29.98 in 10.0 mi West 17.3 mph 24.2 mph N/A   Clear
2:53 PM 25.0 °F 11.3 °F 17.1 °F 72% 29.98 in 10.0 mi WNW 18.4 mph 24.2 mph N/A   Clear
3:53 PM 24.1 °F 12.5 °F 16.0 °F 71% 30.00 in 10.0 mi West 12.7 mph - N/A   Partly Cloudy
4:53 PM 23.0 °F 11.7 °F 16.0 °F 74% 30.01 in 10.0 mi West 11.5 mph - N/A   Mostly Cloudy
5:53 PM 21.9 °F 10.4 °F 15.1 °F 75% 30.03 in 10.0 mi West 11.5 mph - N/A   Overcast
6:53 PM 21.9 °F 11.7 °F 15.1 °F 75% 30.05 in 10.0 mi West 9.2 mph - N/A   Overcast
7:53 PM 21.0 °F 10.6 °F 14.0 °F 74% 30.06 in 10.0 mi WNW 9.2 mph - N/A   Overcast
8:53 PM 19.9 °F 11.1 °F 14.0 °F 78% 30.06 in 10.0 mi WNW 6.9 mph - N/A   Overcast
9:53 PM 19.0 °F 11.1 °F 12.9 °F 77% 30.06 in 10.0 mi West 5.8 mph - N/A   Overcast
10:53 PM 18.0 °F 7.7 °F 12.0 °F 78% 30.06 in 10.0 mi West 8.1 mph - N/A   Overcast
11:53 PM 17.1 °F 7.6 °F 12.0 °F 81% 30.05 in 10.0 mi West 6.9 mph - N/A   Overcast